Location: ????????
(54.6123°N, 39.2099°E)
Time: 01:41:49
(UTC+00:00)

GP-B - Pass Details

Date: 19 May 2025
Orbit: 619 x 623 km, 89.8° (Epoch: 14 June)

Event Time Altitude Azimuth Distance (km) Brightness Sun altitude
Rises 21:30:24 0° 359° (N) 2,918 8.4 -15.4°
Reaches altitude 10° 21:32:38 10° 357° (N) 2,006 7.1 -15.4°
Maximum altitude 21:37:01 68° 275° (W) 674 3.2 -15.3°
Enters shadow 21:39:23 26° 198° (SSW) 1,225 4.0 -15.3°
